Date String (YYYY-MM-DD hh:mm:ss) UTC,Instrument flags,absolute air pressure of the measurement (hPa),sample flow rate (lpm),inlet stack bypass flow (lpm),air temperature of the measurement (°C),ambient temperature measured by the external sensor (°C),aerosol sample conditioner tube jacket temperature (°C),OPC LED temperature (°C),internal box temperature (°C),relative humidity of the measurement (%),span deviation,mass concentration of particles derived from Lorenz-Mie calculation of OPC scattering (μg/m³),mass concentration of particles derived from Lorenz-Mie calculation of OPC scattering (μg/m³),mass concentration of particles derived from Lorenz-Mie calculation of OPC scattering (μg/m³)
DateTimeUTC,F1_M11,P_M11,Q1_M11,Q2_M11,T1_M11,T2_M11,T3_M11,T4_M11,T5_M11,U1_M11,ZSPAN_M11,X2_M11,X0_M11,X1_M11
2023-09-04 12:00:00,SystemResetWarning,0825.4,5.00,000.00,028.3,027.1,000.0,036.7,029.9,26.9,0000.0,0001.95,0003.76,0001.45
2023-09-04 12:01:00,SystemResetWarning,0825.4,5.01,000.00,028.4,027.1,000.0,036.7,029.9,26.4,0000.0,0001.99,0003.43,0001.43
2023-09-04 12:02:00,SystemResetWarning,0825.4,5.01,000.00,028.4,027.2,000.0,036.7,030.0,26.4,0000.0,0001.99,0003.04,0001.43
2023-09-04 12:03:00,SystemResetWarning,0825.4,5.00,000.00,028.4,027.2,000.0,036.8,030.0,26.2,0000.0,0001.95,0002.98,0001.42
2023-09-04 12:04:00,SystemResetWarning,0825.4,4.99,000.00,028.4,027.2,000.0,036.8,030.0,25.9,0000.0,0001.95,0003.01,0001.43
2023-09-04 12:05:00,SystemResetWarning,0825.4,4.99,000.00,028.5,027.3,000.0,036.8,030.0,25.9,0000.0,0001.94,0002.99,0001.43
2023-09-04 12:06:00,SystemResetWarning,0825.3,5.00,000.00,028.5,027.3,000.0,036.8,030.1,25.9,0000.0,0001.93,0002.95,0001.42
2023-09-04 12:07:00,SystemResetWarning,0825.4,5.00,000.00,028.5,027.3,000.0,036.8,030.1,25.5,0000.0,0001.90,0002.91,0001.40
2023-09-04 12:08:00,SystemResetWarning,0825.3,5.01,000.00,028.5,027.4,000.0,036.8,030.1,25.8,0000.0,0001.84,0002.71,0001.39
2023-09-04 12:09:00,SystemResetWarning,0825.4,5.01,000.00,028.5,027.4,000.0,036.8,030.2,25.6,0000.0,0001.89,0002.87,0001.39
2023-09-04 12:10:00,SystemResetWarning,0825.4,5.00,000.00,028.6,027.4,000.0,036.9,030.2,25.5,0000.0,0001.90,0002.87,0001.40
2023-09-04 12:11:00,SystemResetWarning,0825.4,4.99,000.00,028.6,027.5,000.0,036.9,030.2,25.7,0000.0,0001.89,0002.87,0001.39
2023-09-04 12:12:00,SystemResetWarning,0825.4,5.00,000.00,028.6,027.5,000.0,036.9,030.2,25.8,0000.0,0001.84,0002.77,0001.39
2023-09-04 12:13:00,SystemResetWarning,0825.4,5.00,000.00,028.6,027.5,000.0,036.9,030.3,25.9,0000.0,0001.82,0002.71,0001.40
2023-09-04 12:14:00,SystemResetWarning,0825.4,5.00,000.00,028.6,027.5,000.0,036.9,030.3,25.7,0000.0,0001.83,0002.74,0001.39
2023-09-04 12:15:00,SystemResetWarning,0825.4,5.00,000.00,028.7,027.5,000.0,037.0,030.3,26.1,0000.0,0001.88,0002.91,0001.39
2023-09-04 12:16:00,SystemResetWarning,0825.4,5.00,000.00,028.7,027.5,000.0,037.0,030.2,26.0,0000.0,0001.92,0003.08,0001.40
2023-09-04 12:17:00,SystemResetWarning,0825.4,4.99,000.00,028.7,026.8,000.0,036.9,030.1,25.7,0000.0,0001.91,0003.03,0001.38
2023-09-04 12:18:00,SystemResetWarning,0825.3,5.00,000.00,028.6,025.1,000.0,036.8,029.7,25.5,0000.0,0001.82,0002.88,0001.38
2023-09-04 12:19:00,SystemResetWarning,0825.3,5.00,000.00,028.4,024.4,000.0,036.8,029.4,25.9,0000.0,0001.83,0003.02,0001.38
2023-09-04 12:20:00,SystemResetWarning,0825.3,5.01,000.00,028.3,024.4,000.0,036.8,029.2,26.6,0000.0,0001.81,0002.96,0001.38
2023-09-04 12:21:00,SystemResetWarning,0825.3,5.00,000.00,028.2,024.8,000.0,036.8,029.3,26.2,0000.0,0001.82,0002.93,0001.38
2023-09-04 12:22:00,SystemResetWarning,0825.3,5.00,000.00,028.2,025.1,000.0,036.7,029.4,25.7,0000.0,0001.81,0002.95,0001.38
2023-09-04 12:23:00,SystemResetWarning,0825.3,5.00,000.00,028.1,025.5,000.0,036.7,029.4,25.5,0000.0,0001.81,0002.99,0001.39
2023-09-04 12:24:00,SystemResetWarning,0825.3,5.00,000.00,028.1,025.8,000.0,036.7,029.5,25.9,0000.0,0001.83,0003.10,0001.39
2023-09-04 12:25:00,SystemResetWarning,0825.3,5.01,000.00,028.1,026.0,000.0,036.7,029.6,25.9,0000.0,0001.84,0003.21,0001.40
2023-09-04 12:26:00,SystemResetWarning,0825.3,5.00,000.00,028.2,026.2,000.0,036.7,029.6,26.2,0000.0,0001.85,0003.34,0001.40
2023-09-04 12:27:00,SystemResetWarning,0825.3,4.99,000.00,028.2,026.4,000.0,036.7,029.7,26.1,0000.0,0001.81,0003.13,0001.39
2023-09-04 12:28:00,SystemResetWarning,0825.2,5.00,000.00,028.2,026.6,000.0,036.7,029.7,26.1,0000.0,0001.81,0003.23,0001.39
2023-09-04 12:29:00,SystemResetWarning,0825.3,5.00,000.00,028.2,026.7,000.0,036.7,029.7,25.7,0000.0,0001.84,0003.31,0001.40
2023-09-04 12:30:00,SystemResetWarning,0825.3,5.00,000.00,028.2,026.8,000.0,036.7,029.8,25.6,0000.0,0001.86,0003.26,0001.39
2023-09-04 12:31:00,SystemResetWarning,0825.3,5.01,000.00,028.2,026.9,000.0,036.7,029.8,25.3,0000.0,0001.83,0003.18,0001.37
2023-09-04 12:32:00,SystemResetWarning,0825.3,5.01,000.00,028.3,026.9,000.0,036.7,029.8,25.4,0000.0,0001.80,0003.19,0001.36
2023-09-04 12:33:00,SystemResetWarning,0825.3,5.00,000.00,028.3,027.0,000.0,036.7,029.9,25.0,0000.0,0001.79,0003.30,0001.35
2023-09-04 12:34:00,SystemResetWarning,0825.2,5.00,000.00,028.3,027.0,000.0,036.7,029.9,25.3,0000.0,0001.79,0004.07,0001.35
2023-09-04 12:35:00,SystemResetWarning,0825.3,5.00,000.00,028.3,027.1,000.0,036.7,029.9,25.1,0000.0,0001.82,0004.49,0001.34
2023-09-04 12:36:00,SystemResetWarning,0825.3,5.00,000.00,028.3,027.1,000.0,036.7,030.0,25.1,0000.0,0001.81,0004.41,0001.32
2023-09-04 12:37:00,SystemResetWarning,0825.3,5.00,000.00,028.4,027.1,000.0,036.7,030.0,25.1,0000.0,0001.74,0004.11,0001.31
2023-09-04 12:38:00,SystemResetWarning,0825.3,5.00,000.00,028.4,027.2,000.0,036.8,030.0,25.1,0000.0,0001.72,0004.06,0001.31
2023-09-04 12:39:00,SystemResetWarning,0825.3,5.00,000.00,028.4,027.2,000.0,036.8,030.0,25.2,0000.0,0001.72,0004.05,0001.30
2023-09-04 12:40:00,SystemResetWarning,0825.3,4.99,000.00,028.4,027.2,000.0,036.8,030.0,25.3,0000.0,0001.73,0004.07,0001.30
2023-09-04 12:41:00,SystemResetWarning,0825.3,5.00,000.00,028.5,027.3,000.0,036.8,030.0,25.6,0000.0,0001.70,0004.00,0001.30
2023-09-04 12:42:00,SystemResetWarning,0825.3,5.00,000.00,028.5,027.3,000.0,036.8,030.1,25.9,0000.0,0001.68,0004.01,0001.30
2023-09-04 12:43:00,SystemResetWarning,0825.3,5.00,000.00,028.5,027.3,000.0,036.8,030.1,26.3,0000.0,0001.69,0003.99,0001.31
2023-09-04 12:44:00,SystemResetWarning,0825.3,5.01,000.00,028.5,027.4,000.0,036.8,030.1,25.6,0000.0,0001.67,0003.78,0001.30
2023-09-04 12:45:00,SystemResetWarning,0825.3,5.01,000.00,028.5,027.4,000.0,036.9,030.2,25.8,0000.0,0001.68,0002.99,0001.29
2023-09-04 12:46:00,SystemResetWarning,0825.3,5.00,000.00,028.6,027.4,000.0,036.9,030.2,26.1,0000.0,0001.64,0002.48,0001.28
2023-09-04 12:47:00,SystemResetWarning,0825.3,5.00,000.00,028.6,027.5,000.0,036.9,030.2,26.2,0000.0,0001.61,0002.39,0001.29
2023-09-04 12:48:00,SystemResetWarning,0825.3,5.00,000.00,028.6,027.5,000.0,036.9,030.2,25.9,0000.0,0001.64,0002.43,0001.29
2023-09-04 12:49:00,SystemResetWarning,0825.3,5.00,000.00,028.6,027.5,000.0,036.9,030.3,25.6,0000.0,0001.65,0002.44,0001.29
2023-09-04 12:50:00,SystemResetWarning,0825.3,5.00,000.00,028.6,027.5,000.0,036.9,030.2,25.4,0000.0,0001.62,0002.34,0001.29
2023-09-04 12:51:00,SystemResetWarning,0825.4,5.00,000.00,028.7,027.5,000.0,036.9,030.2,25.2,0000.0,0001.60,0002.29,0001.28
2023-09-04 12:52:00,SystemResetWarning,0825.3,5.00,000.00,028.7,027.5,000.0,037.0,030.2,25.2,0000.0,0001.60,0002.40,0001.27
2023-09-04 12:53:00,SystemResetWarning,0825.2,5.00,000.00,028.7,027.5,000.0,037.0,030.3,25.1,0000.0,0001.62,0002.42,0001.28
2023-09-04 12:54:00,SystemResetWarning,0825.3,5.00,000.00,028.7,027.6,000.0,037.0,030.3,25.0,0000.0,0001.62,0002.42,0001.27
2023-09-04 12:55:00,SystemResetWarning,0825.3,5.00,000.00,028.7,027.6,000.0,037.0,030.3,24.8,0000.0,0001.64,0002.46,0001.28
2023-09-04 12:56:00,SystemResetWarning,0825.3,5.00,000.00,028.8,027.6,000.0,037.0,030.3,24.5,0000.0,0001.65,0002.49,0001.30
2023-09-04 12:57:00,SystemResetWarning,0825.3,5.00,000.00,028.8,027.6,000.0,037.1,030.4,24.4,0000.0,0001.65,0002.44,0001.31
2023-09-04 12:58:00,SystemResetWarning,0825.3,5.00,000.00,028.8,027.5,000.0,037.1,030.4,24.3,0000.0,0001.67,0002.52,0001.31
2023-09-04 12:59:00,SystemResetWarning,0825.3,4.99,000.00,028.8,026.3,000.0,037.0,030.0,24.2,0000.0,0001.67,0002.59,0001.30
